DCCHB EDMO-EDGS

Flight info

Callsign DCCHB
Flight time N/A
Altitude 40000
Route MAH2R MAH M726 ERNAS Y101 IBAGA/N0424F240 L610 TUSOS DCT DEMAB L604 MASEK Z52 OHMAR/N0401F200 Z658 BIGSU VFR DCT
Aircraft LJ35/M-SGHRWXY/SB1

Departure

Time 2026-04-29 19:39
Airport Oberpfaffenhofen Airport (EDMO)

Arrival

Time N/A
Airport Siegerland Airport (EDGS)
Time Latitude Longitude Altitude Speed Heading
2026-04-29 19:27 48.08764 11.28417 1919 ft 0 kts 153°
2026-04-29 19:34 48.08755 11.28423 1919 ft 5 kts 153°
2026-04-29 19:34 48.08733 11.28472 1923 ft 6 kts 47°
2026-04-29 19:34 48.08736 11.28551 1919 ft 9 kts 131°
2026-04-29 19:35 48.08735 11.28638 1919 ft 9 kts 45°
2026-04-29 19:35 48.08750 11.28658 1919 ft 0 kts 41°
2026-04-29 19:35 48.08753 11.28662 1919 ft 0 kts 41°
2026-04-29 19:36 48.08759 11.28669 1919 ft 4 kts 41°
2026-04-29 19:36 48.08789 11.28710 1919 ft 8 kts 42°
2026-04-29 19:36 48.08835 11.28776 1919 ft 9 kts 51°
2026-04-29 19:36 48.08858 11.28836 1919 ft 11 kts 73°
2026-04-29 19:37 48.08863 11.28985 1920 ft 9 kts 89°
2026-04-29 19:37 48.08863 11.29016 1920 ft 8 kts 90°
2026-04-29 19:37 48.08863 11.29145 1921 ft 10 kts 90°
2026-04-29 19:37 48.08850 11.29219 1923 ft 7 kts 134°
2026-04-29 19:38 48.08811 11.29233 1923 ft 4 kts 226°
2026-04-29 19:38 48.08808 11.29229 1923 ft 0 kts 224°
2026-04-29 19:38 48.08611 11.28958 1924 ft 95 kts 222°
2026-04-29 19:38 48.07897 11.27977 1992 ft 174 kts 224°
2026-04-29 19:39 48.06902 11.26644 2792 ft 209 kts 217°
2026-04-29 19:39 48.05759 11.25009 3567 ft 235 kts 220°
2026-04-29 19:39 48.04573 11.23411 4205 ft 227 kts 215°
2026-04-29 19:39 48.03238 11.22290 4681 ft 216 kts 186°
2026-04-29 19:40 48.01828 11.22422 5125 ft 200 kts 155°
2026-04-29 19:40 48.00704 11.23499 5478 ft 189 kts 128°
2026-04-29 19:40 48.00069 11.25189 5820 ft 190 kts 103°
2026-04-29 19:40 48.00043 11.27176 6198 ft 201 kts 77°
2026-04-29 19:41 48.00707 11.29205 6850 ft 235 kts 59°
2026-04-29 19:41 48.01919 11.31112 7795 ft 273 kts 37°
2026-04-29 19:41 48.03766 11.32407 8585 ft 317 kts 15°
2026-04-29 19:41 48.06092 11.32648 9395 ft 353 kts 359°
2026-04-29 19:42 48.08623 11.32378 10426 ft 368 kts 355°
2026-04-29 19:42 48.10311 11.32138 11316 ft 369 kts 355°
2026-04-29 19:42 48.13796 11.31917 12303 ft 378 kts 360°
2026-04-29 19:42 48.16440 11.31856 13194 ft 381 kts 359°
2026-04-29 19:43 48.19100 11.31677 14124 ft 385 kts 357°
2026-04-29 19:43 48.21783 11.31456 14904 ft 388 kts 357°
2026-04-29 19:43 48.24497 11.31288 15661 ft 392 kts 358°
2026-04-29 19:43 48.27231 11.31065 16463 ft 396 kts 354°
2026-04-29 19:44 48.29981 11.30600 17623 ft 399 kts 354°
2026-04-29 19:44 48.32758 11.30168 18338 ft 405 kts 355°
2026-04-29 19:44 48.35575 11.29745 18900 ft 409 kts 355°
2026-04-29 19:44 48.38419 11.29296 19548 ft 411 kts 354°
2026-04-29 19:45 48.41265 11.28837 20149 ft 414 kts 355°
2026-04-29 19:45 48.44106 11.28386 20795 ft 418 kts 355°
2026-04-29 19:45 48.47011 11.27929 21627 ft 420 kts 355°
2026-04-29 19:45 48.49938 11.27466 22357 ft 425 kts 355°
2026-04-29 19:46 48.52887 11.26996 23058 ft 428 kts 355°
2026-04-29 19:46 48.55871 11.26520 23718 ft 432 kts 355°
2026-04-29 19:46 48.58864 11.26043 24319 ft 434 kts 355°
2026-04-29 19:46 48.61857 11.25567 25136 ft 428 kts 356°
2026-04-29 19:47 48.64787 11.25098 26149 ft 420 kts 356°
2026-04-29 19:47 48.67700 11.24632 26831 ft 422 kts 356°
2026-04-29 19:47 48.70610 11.24167 27595 ft 419 kts 357°
2026-04-29 19:47 48.73508 11.23699 28370 ft 417 kts 357°
2026-04-29 19:48 48.76382 11.23236 29122 ft 415 kts 358°
2026-04-29 19:48 48.78293 11.22931 29622 ft 414 kts 358°
2026-04-29 19:48 48.82116 11.22315 30574 ft 411 kts 358°
2026-04-29 19:48 48.84942 11.21645 31132 ft 415 kts 350°
2026-04-29 19:49 48.87702 11.20300 31698 ft 416 kts 346°
2026-04-29 19:49 48.90429 11.18906 32486 ft 408 kts 346°
2026-04-29 19:49 48.93087 11.17563 33442 ft 397 kts 345°
2026-04-29 19:49 48.95689 11.16249 34199 ft 393 kts 345°
2026-04-29 19:50 48.98273 11.14937 34751 ft 390 kts 345°
2026-04-29 19:50 49.00843 11.13625 35214 ft 390 kts 344°
2026-04-29 19:50 49.03411 11.12317 35652 ft 389 kts 344°
2026-04-29 19:50 49.05982 11.11007 36086 ft 389 kts 344°
2026-04-29 19:51 49.08556 11.09694 36516 ft 390 kts 344°
2026-04-29 19:51 49.11122 11.08384 36942 ft 390 kts 343°
2026-04-29 19:51 49.13697 11.07066 37349 ft 390 kts 343°
2026-04-29 19:51 49.16268 11.05754 37757 ft 390 kts 343°
2026-04-29 19:52 49.18842 11.04443 38144 ft 390 kts 343°
2026-04-29 19:52 49.21421 11.03121 38538 ft 391 kts 342°
2026-04-29 19:52 49.23999 11.01786 38908 ft 391 kts 342°
2026-04-29 19:52 49.26548 11.00471 39210 ft 392 kts 342°
2026-04-29 19:53 49.29141 10.99137 39483 ft 393 kts 342°
2026-04-29 19:53 49.31729 10.97803 39759 ft 393 kts 342°
2026-04-29 19:53 49.34333 10.96457 40047 ft 394 kts 342°
2026-04-29 19:53 49.36927 10.95109 40338 ft 394 kts 342°
2026-04-29 19:54 49.41718 10.91011 40880 ft 397 kts 327°
2026-04-29 19:54 49.43985 10.88577 41145 ft 397 kts 327°
2026-04-29 19:54 49.46264 10.86150 41409 ft 398 kts 327°
2026-04-29 19:55 49.48534 10.83729 41669 ft 398 kts 327°
2026-04-29 19:55 49.50778 10.81322 41928 ft 398 kts 327°
2026-04-29 19:55 49.53054 10.78882 42175 ft 399 kts 327°
2026-04-29 19:55 49.55333 10.76455 42432 ft 399 kts 327°
2026-04-29 19:56 49.57621 10.74017 42689 ft 399 kts 327°
2026-04-29 19:56 49.59899 10.71576 42930 ft 399 kts 327°
2026-04-29 19:56 49.62182 10.69125 43176 ft 399 kts 327°
2026-04-29 19:56 49.64469 10.66673 43307 ft 402 kts 327°
2026-04-29 19:57 49.68331 10.62528 43313 ft 412 kts 327°
2026-04-29 19:57 49.73900 10.56527 43329 ft 423 kts 327°
2026-04-29 19:58 49.78929 10.51666 43341 ft 430 kts 330°
2026-04-29 19:58 49.84045 10.46751 43347 ft 434 kts 329°
2026-04-29 19:59 49.89160 10.41842 43348 ft 436 kts 330°
2026-04-29 19:59 49.94309 10.36880 43350 ft 434 kts 329°
2026-04-29 20:00 49.99432 10.31932 43355 ft 433 kts 329°
2026-04-29 20:00 50.04491 10.27031 43056 ft 425 kts 330°
2026-04-29 20:01 50.07105 10.24869 41784 ft 427 kts 340°
2026-04-29 20:01 50.09929 10.23512 40679 ft 423 kts 349°
2026-04-29 20:01 50.12807 10.22674 39699 ft 418 kts 352°
2026-04-29 20:01 50.15653 10.21853 38719 ft 413 kts 352°
2026-04-29 20:02 50.18453 10.21024 37632 ft 408 kts 352°
2026-04-29 20:02 50.21224 10.20208 36612 ft 402 kts 353°
2026-04-29 20:02 50.23958 10.19412 35493 ft 399 kts 354°
2026-04-29 20:02 50.25763 10.18887 34691 ft 399 kts 354°
2026-04-29 20:03 50.29427 10.17811 32681 ft 402 kts 355°
2026-04-29 20:03 50.32186 10.16998 31126 ft 404 kts 356°
2026-04-29 20:03 50.34941 10.16096 29527 ft 408 kts 351°
2026-04-29 20:03 50.37595 10.14426 28198 ft 412 kts 340°
2026-04-29 20:04 50.40006 10.12012 27093 ft 410 kts 330°
2026-04-29 20:04 50.42253 10.09376 26124 ft 398 kts 330°